Location: LewisvilleTX
(33.0462°N, 96.9942°W)
Time: 06:16:38
(UTC+00:00)

N. Korean satellite - Pass Details

Date: 30 November 2021
Orbit: 447 x 491 km, 97.3° (Epoch: 22 January)

Event Time Altitude Azimuth Distance (km) Brightness Sun altitude
Rises 11:28:22 0° 14° (NNE) 2,459 10.2 -21.4°
Reaches altitude 10° 11:30:25 10° 18° (NNE) 1,579 9.2 -21.0°
Maximum altitude 11:33:46 64° 100° (E) 500 6.8 -20.3°
Drops below altitude 10° 11:37:05 10° 183° (S) 1,563 9.3 -19.6°
Sets 11:39:07 0° 186° (S) 2,431 10.2 -19.2°
